Location: Fernhill
(41.0167°S, 175.6333°E)
Time: 14:03:42
(UTC+00:00)

Cosmos 1763 Rocket - Visible Passes

Search period start: 12 February 2026 00:00
Search period end: 22 February 2026 00:00
Orbit: 729 x 773 km, 74.0° (Epoch: 10 February)

Date Brightness Start Highest point End Pass type
(mag) Time Alt. Az. Time Alt. Az. Time Alt. Az.
12 Feb 5.7 14:17:09 15° ENE 14:18:27 16° E 14:21:40 10° ESE visible
12 Feb 3.6 15:57:05 31° NW 15:59:34 61° WSW 16:04:53 10° SSE visible
13 Feb 3.6 15:16:05 50° N 15:17:25 72° ENE 15:22:44 10° SSE visible
13 Feb 5.3 16:56:24 10° W 16:59:41 16° SW 17:03:00 10° SSW visible
14 Feb 4.5 14:35:02 37° ENE 14:35:23 37° ENE 14:40:17 10° SE visible
14 Feb 4.7 16:14:57 21° W 16:17:08 28° WSW 16:21:45 10° S visible
15 Feb 5.5 13:53:57 20° E 13:53:57 20° E 13:57:17 10° SE visible
15 Feb 3.8 15:33:52 46° W 15:34:46 51° WSW 15:39:59 10° S visible
16 Feb 3.5 14:52:44 83° SE 14:52:44 83° SE 14:57:56 10° SSE visible
16 Feb 5.5 16:32:40 11° W 16:35:00 14° SW 16:37:42 10° SSW visible
17 Feb 4.6 14:11:35 40° ESE 14:11:35 40° ESE 14:15:34 10° SSE visible
17 Feb 4.8 15:51:30 23° WSW 15:52:24 24° WSW 15:56:42 10° S visible
18 Feb 5.6 13:30:23 20° ESE 13:30:23 20° ESE 13:32:46 10° SE visible
18 Feb 4.2 15:10:18 42° SW 15:10:18 42° SW 15:15:04 10° S visible
19 Feb 4.2 14:29:05 51° S 14:29:05 51° S 14:33:05 10° SSE visible
19 Feb 5.6 16:09:00 11° WSW 16:10:19 12° SW 16:12:09 10° SSW visible
20 Feb 5.1 13:47:50 32° SE 13:47:50 32° SE 13:50:49 10° SSE visible
20 Feb 5.2 15:27:45 20° SW 15:27:45 20° SW 15:31:36 10° S visible
21 Feb 5.9 13:06:34 18° SE 13:06:34 18° SE 13:08:09 10° SE visible
21 Feb 4.8 14:46:28 31° SW 14:46:28 31° SW 14:50:06 10° S visible
